Weather in Sarnia

Canada     42°58′41″N   82°23′55″W
temp.,
°C
wind,
m/s
gust,
m/s
humid.,
%
clouds,
%
prec.,
mm/h
press.,
hPa
HPBL,
m
18 september, sat
sat1823:00+20sw33800 0.0 101843
02:00+18n51086100 0.0 1019283
05:00+18nne71068100 0.0 1020552
08:00+18nne6959100 0.0 1022564
11:00+20nne66514 0.0 1022738
14:00+21nne66480 0.0 1022800
17:00+20nne56485 0.0 1022682
20:00+15nne4865100 0.0 1022191
19 september, sun
sun1923:00+14nne466253 0.0 1023122
02:00+13ene347030 0.0 102365
05:00+11e23655 0.0 102342
08:00+11se22590 0.0 102449
11:00+20se23370 0.0 1023464
14:00+25e23270 0.0 10211013
17:00+25ne12280 0.0 1019712
20:00+18se2252100 0.0 102012
20 september, mon
mon2023:00+15sse4760100 0.0 1021103
02:00+14se356980 0.0 102084
05:00+15se3791100 0.0 1020125
08:00+16sse377967 0.0 1020152
11:00+23s474843 0.0 1020470
14:00+30s573360 0.0 10171499
17:00+27ssw7949100 0.0 1017932
20:00+21ssw51183100 0.0 1018524
21 september, tue
tue2123:00+21s61483100 0.0 1018824
02:00+21s71582100 0.0 1017848
05:00+20s81486100 0.1 1016898
08:00+20s71386100 0.1 1016807
11:00+21s81385100 0.1 1016883
14:00+21s71390100 0.9 1015922
17:00+21s71490100 0.9 1013869
20:00+20s81494100 1.9 1011674
22 september, wed
wed2223:00+15nnw91594100 3.9 1012580
02:00+14nnw81396100 7.3 1012624
05:00+13nw71294100 5.8 1013620
08:00+13nw71291100 5.9 1015730
11:00+13nnw71288100 0.3 1016941
14:00+13nnw81183100 0.5 1017969
17:00+12nnw81279100 0.3 10171003
20:00+12nnw71174100 0.4 1018928